This demonstration page uses our WeatherBlox Daily Observations layout. Learn more.

Left ArrowRight Arrow

Hourly Observations for July 8, 2016

Temp ( °F °C ) Dew Point ( °F °C ) Humidity (%) Winds ( mph kmh ) Pressure ( in mb ) Visibility ( mi km ) Precip ( " mm )
12:53 am 00:53 Clear 77 25 68 20 74 74 SW 9 15 29.85 1011 10 16 N/A
1:53 am 01:53 Clear 75 23.9 67 19.4 76 76 WSW 13 20 29.84 1011 10 16 N/A
2:53 am 02:53 Clear 74 23.3 67 19.4 79 79 WSW 9 15 29.85 1011 10 16 N/A
3:53 am 03:53 Mostly Cloudy 73 22.8 67 19.4 81 81 SW 6 9 29.86 1011 10 16 N/A
4:14 am 04:14 Mostly Cloudy 73 22.8 67 19.4 81 81 SW 7 11 29.88 1012 10 16 N/A
4:53 am 04:53 Cloudy 73 22.8 68 20 84 84 SW 7 11 29.87 1011 10 16 N/A
5:53 am 05:53 Cloudy 73 22.8 68 20 84 84 WSW 8 13 29.87 1012 10 16 N/A
6:18 am 06:18 Partly Cloudy 72 22.2 68 20 87 87 N N/A 29.91 1013 10 16 N/A
6:53 am 06:53 Sunny 71 21.7 68 20 90 90 N N/A 29.88 1012 10 16 N/A
7:53 am 07:53 Sunny 74 23.3 69 20.6 85 85 WSW 5 7 29.87 1012 10 16 N/A
8:22 am 08:22 Mostly Cloudy 75 23.9 69 20.6 82 82 WSW 10 17 29.91 1013 10 16 N/A
8:53 am 08:53 Cloudy 75 23.9 70 21.1 84 84 WSW 8 13 29.89 1012 10 16 N/A
9:53 am 09:53 Cloudy 77 25 71 21.7 82 82 SW 7 11 29.89 1012 10 16 N/A
10:13 am 10:13 Cloudy 79 26.1 72 22.2 79 79 WSW 7 11 29.88 1012 10 16 N/A
10:53 am 10:53 Mostly Cloudy 79 26.1 71 21.7 77 77 SW 6 9 29.89 1012 10 16 N/A
11:53 am 11:53 Cloudy 81 27.2 72 22.2 74 74 SW 5 7 29.88 1012 10 16 N/A
12:36 pm 12:36 Cloudy with Nearby Thunderstorms 79 26.1 71 21.7 77 77 SW 10 17 29.91 1013 10 16 N/A
12:51 pm 12:51 Windy with Storms Likely 75 24 70 21 83 83 SW 20 31 29.97 1015 6 10 0.01 0.25
12:53 pm 12:53 Cloudy with Thunderstorms 74 23.3 68 20 82 82 SW 16 26 29.95 1014 3 5 0.03 0.76
12:57 pm 12:57 Cloudy with Strong Thunderstorms 72 22.2 68 20 87 87 WSW 17 28 29.97 1015 2 3 0.03 0.76
1:04 pm 13:04 Cloudy with Strong Thunderstorms 71 21.7 68 20 90 90 WSW 17 28 29.97 1015 2 2 0.08 2.03
1:07 pm 13:07 Cloudy with Strong Thunderstorms 71 21.7 67 19.4 87 87 W 16 26 29.97 1015 2 3 0.09 2.29
1:17 pm 13:17 Cloudy with Thunderstorms 70 21.1 66 18.9 87 87 W 12 19 29.94 1014 6 10 0.10 2.54
1:26 pm 13:26 Cloudy with Strong Thunderstorms 69 20.6 66 18.9 90 90 SSW 3 6 29.88 1012 2 2 0.15 3.81
1:37 pm 13:37 Mostly Cloudy with Thunderstorms 70 21.1 66 18.9 87 87 W 5 7 29.88 1012 4 6 0.17 4.32
1:46 pm 13:46 Mostly Cloudy with Nearby Thunderstorms 69 20.6 67 19.4 93 93 S 6 9 29.88 1012 7 11 0.17 4.32
1:53 pm 13:53 Mostly Cloudy with Thunderstorms 69 20.6 66 18.9 90 90 VRB 6 9 29.87 1012 6 10 0.18 4.57
2:13 pm 14:13 Mostly Cloudy with Nearby Thunderstorms 70 21.1 67 19.4 90 90 ESE 6 9 29.88 1012 10 16 0.01 0.25
2:21 pm 14:21 Partly Cloudy with Light Rain 71 21.7 68 20 90 90 SW 8 13 29.91 1013 10 16 0.01 0.25
2:53 pm 14:53 Mostly Sunny 75 23.9 70 21.1 84 84 WSW 9 15 29.90 1012 10 16 0.01 0.25
3:53 pm 15:53 Sunny 77 25 69 20.6 77 77 W 10 17 29.86 1011 10 16 N/A
4:53 pm 16:53 Sunny 81 27.2 71 21.7 72 72 SW 12 19 29.86 1011 10 16 N/A
5:53 pm 17:53 Sunny 82 27.8 72 22.2 72 72 SW 8 13 29.86 1011 10 16 N/A
6:53 pm 18:53 Sunny 83 28.3 72 22.2 70 70 VRB 6 9 29.85 1011 10 16 N/A
7:53 pm 19:53 Sunny 82 27.8 72 22.2 72 72 SSW 6 9 29.84 1011 10 16 N/A
8:53 pm 20:53 Sunny 80 26.7 73 22.8 79 79 SSW 7 11 29.86 1011 10 16 N/A
9:53 pm 21:53 Clear 78 25.6 73 22.8 85 85 WSW 5 7 29.87 1012 10 16 N/A
10:53 pm 22:53 Partly Cloudy 78 25.6 74 23.3 87 87 WSW 5 7 29.87 1012 10 16 N/A
11:53 pm 23:53 Clear 77 25 73 22.8 88 88 W 7 11 29.87 1011 10 16 N/A

Powered by AerisWeather